Wind_Speed
10 10 10 12 14 14 13 13 11 8 7 9 11 13 13 12 11 9 7 6 4 3 3 1 2 3 0 3 6 6 4 3 4 8 11 12 12 11 9 8 7 5 4 3 1 1 1 2 3 4 4 3 3 3 2 2 2 2 2 2 1 2 2 3 3 2 2 3 4 4 5 5 6 6 7 7 7 7 7 7 7 7 7 7 7
10 11 12 13 14 13 11 10 9 7 6 7 9 11 12 11 11 10 7 6 3 2 1 2 2 2 3 2 5 7 6 6 6 8 10 11 11 11 10 10 9 8 7 6 3 3 3 2 1 4 4 3 2 2 2 2 2 2 3 3 2 2 2 2 2 2 2 2 2 3 4 4 5 5 6 6 7 7 7 7 7 8 8 8 8
10 10 12 12 12 11 9 8 8 7 5 7 9 9 10 10 10 9 7 4 2 1 2 7 5 4 4 2 1 4 5 5 5 7 8 8 8 9 10 10 10 10 10 9 8 7 6 5 2 2 3 2 2 1 2 2 2 2 3 3 3 3 3 3 2 2 2 2 2 2 3 3 4 4 5 5 6 6 7 7 7 8 8 8 8
9 9 10 10 10 10 9 8 7 7 5 6 8 9 9 9 8 9 6 3 1 2 2 6 7 5 4 2 2 1 1 2 3 5 6 6 7 7 8 8 8 8 9 10 10 10 7 6 5 2 2 2 2 1 1 2 2 2 3 3 3 3 3 3 3 3 3 3 3 3 3 3 4 4 4 4 5 5 6 7 7 7 8 8 8
9 10 9 9 10 10 8 8 6 6 6 6 7 8 8 8 9 9 7 4 3 2 4 4 4 3 3 1 1 4 5 2 2 4 5 6 6 5 6 6 6 6 8 8 9 10 8 7 6 5 4 2 1 1 1 2 2 2 3 3 3 3 3 3 3 4 4 4 4 4 4 4 4 5 5 4 5 5 6 6 7 7 7 7 8
9 10 9 9 10 10 9 9 9 8 8 8 8 8 7 8 9 10 10 8 7 4 2 4 3 1 1 2 3 3 6 4 2 4 4 6 6 5 4 4 5 5 6 7 7 7 8 7 7 7 6 5 4 3 3 2 2 3 3 4 3 3 3 3 3 4 4 4 4 5 5 4 5 5 6 6 6 6 7 7 8 8 8 8 8
9 10 10 9 9 10 11 11 10 10 9 8 9 8 7 7 8 10 11 10 9 7 5 4 3 2 1 1 3 4 5 4 3 4 5 5 5 4 3 3 4 4 4 5 5 5 6 6 6 6 6 7 6 6 5 4 3 3 3 4 4 4 4 4 4 4 5 5 5 5 5 5 5 6 6 6 7 7 8 8 9 9 9 9 9
11 11 10 10 9 11 13 12 11 11 10 8 8 8 7 8 9 10 9 10 10 9 8 8 5 4 4 2 3 5 5 4 3 3 4 4 3 2 3 3 3 4 4 3 4 5 4 4 5 5 6 6 6 5 5 5 4 4 4 4 4 5 5 5 5 5 5 6 6 6 6 7 7 7 7 8 8 8 9 9 10 10 10 10 10
11 11 12 12 11 12 14 14 12 12 12 10 9 9 9 10 11 10 10 11 11 11 12 11 9 8 7 4 3 5 5 4 3 2 4 5 3 3 4 4 4 4 4 4 4 4 4 4 5 5 5 5 5 5 4 4 5 4 4 4 4 5 5 5 6 6 6 6 7 7 8 8 8 9 9 10 10 10 11 11 12 12 12 11 11
12 13 14 14 13 14 16 15 14 13 13 12 11 11 11 11 11 11 11 13 12 11 12 12 12 11 9 7 6 5 4 5 5 4 5 5 4 3 4 4 4 4 4 5 4 4 4 4 5 5 5 5 5 5 5 4 4 4 4 4 4 5 5 6 6 6 6 6 7 7 8 8 9 10 10 11 11 12 12 13 13 14 13 13 12
15 16 17 16 15 16 17 16 15 15 14 14 13 13 13 11 11 11 12 13 12 11 11 11 12 12 10 8 7 6 4 5 5 6 6 6 6 6 6 5 5 4 4 5 5 5 4 5 5 6 6 7 7 6 6 6 5 5 5 5 5 5 6 6 6 6 6 7 7 7 8 8 9 10 11 11 12 12 13 13 14 15 15 15 14
16 17 18 17 17 17 17 16 16 15 15 15 14 14 13 12 11 12 13 13 12 11 11 11 11 12 12 9 8 7 6 5 6 6 7 8 7 8 9 8 6 4 3 4 5 5 5 5 5 6 6 6 7 7 7 7 6 6 6 6 6 6 6 6 6 7 7 7 8 8 8 9 9 10 11 11 12 13 13 14 14 15 15 15 15
16 17 17 18 18 18 18 17 16 15 15 15 15 14 14 13 13 13 13 13 12 11 12 12 11 12 13 11 9 7 5 5 6 7 7 8 8 8 9 9 8 5 4 4 5 6 6 5 5 5 5 5 6 7 7 7 7 6 6 6 7 7 7 7 7 7 8 8 9 9 9 10 10 11 11 12 13 13 14 14 14 15 16 16 16
15 16 17 18 19 20 20 20 18 16 15 15 15 15 15 14 14 14 14 13 12 11 11 12 12 13 12 10 9 8 6 6 7 8 8 8 8 8 8 8 7 5 5 5 5 6 6 6 5 5 4 5 5 6 7 8 7 7 7 7 7 7 8 8 8 8 8 9 9 10 10 11 11 12 12 13 13 14 14 14 15 15 16 16 16
15 16 17 17 18 20 21 22 20 18 17 16 16 16 15 15 15 15 14 13 13 12 11 11 12 12 12 10 9 8 7 5 7 8 9 8 7 7 7 6 6 5 6 6 6 6 6 7 6 5 5 6 6 7 7 8 7 7 7 7 7 8 9 9 9 10 9 9 9 10 10 11 12 12 13 13 14 14 14 15 15 15 15 15 15
16 15 17 18 18 19 20 22 22 21 20 18 17 16 15 15 16 15 15 14 14 13 12 12 13 12 11 10 9 7 5 3 5 7 8 9 8 7 7 7 6 6 6 7 7 7 8 8 7 7 8 7 6 7 7 7 8 7 6 6 7 8 8 9 9 10 10 10 10 10 10 10 11 12 13 13 14 14 14 15 15 15 15 15 15
15 15 17 18 19 20 20 21 22 23 22 21 20 18 17 16 17 16 16 15 14 13 14 14 14 13 12 10 9 7 6 4 3 4 5 6 7 7 8 8 8 8 9 9 8 8 9 10 10 10 9 8 7 7 8 8 7 7 6 6 6 7 8 8 9 9 10 10 10 11 11 11 11 12 13 14 14 15 15 15 15 14 15 15 15
18 18 18 18 19 20 21 20 21 22 22 22 22 21 19 18 18 18 17 16 15 14 15 16 15 15 14 13 10 8 8 6 3 2 2 3 4 6 7 8 9 9 10 10 9 9 10 11 12 12 11 10 10 10 9 8 6 5 4 4 5 6 8 8 8 9 9 10 11 11 12 12 12 13 14 14 15 15 15 15 15 14 15 15 15
22 21 20 19 19 19 20 20 20 20 21 21 22 21 20 19 19 19 18 17 17 16 15 17 17 16 15 15 13 11 10 8 6 3 4 4 4 5 6 8 9 10 11 11 11 11 12 13 14 14 14 12 11 10 9 7 6 5 3 3 4 6 7 8 8 8 9 9 10 11 12 12 12 13 13 14 14 15 16 16 16 16 16 16 16
24 24 22 21 20 19 20 20 19 19 20 21 21 21 20 20 20 20 19 19 19 17 16 17 19 17 15 15 15 13 12 10 8 6 6 8 9 9 9 9 10 11 12 13 14 14 14 15 15 15 15 13 11 10 9 7 5 4 2 2 4 6 7 8 9 9 9 9 9 10 10 11 11 12 12 13 14 15 16 16 17 16 17 17 17
23 24 24 23 22 21 21 22 21 20 20 20 20 21 21 21 21 20 20 20 19 18 18 18 20 18 16 16 15 15 13 11 10 8 8 10 11 11 9 8 8 9 10 11 14 15 15 15 15 15 14 12 10 9 9 7 5 3 2 3 5 7 8 9 10 10 10 10 10 10 11 11 12 12 13 14 15 16 16 16 17 17 17 17 17
19 21 23 24 24 23 24 24 23 22 21 21 21 21 21 21 21 20 20 19 19 19 18 19 20 19 17 17 16 16 15 14 13 11 10 11 11 11 10 8 7 7 7 9 12 14 15 15 15 14 13 11 9 8 9 8 6 4 4 5 6 8 9 10 10 10 11 11 11 11 11 12 13 14 14 15 15 16 16 16 16 16 16 16 16
16 18 19 21 23 24 24 25 25 24 23 22 22 22 21 21 21 20 20 19 19 19 18 19 20 20 20 19 18 17 17 16 15 13 12 11 10 10 10 9 8 6 6 8 10 12 13 14 14 13 11 10 8 7 7 6 4 4 5 6 7 9 11 11 11 11 11 11 11 12 12 13 13 14 14 14 15 15 15 15 15 15 15 15 15
15 16 17 18 20 23 24 25 25 25 23 22 22 22 21 21 21 21 20 20 20 20 20 20 21 21 21 21 20 19 19 18 15 15 13 10 9 10 10 10 9 6 5 7 9 11 12 12 12 11 10 9 7 6 6 5 3 4 5 6 8 10 10 10 10 10 10 11 11 12 12 13 14 14 14 14 15 15 15 15 15 15 16 15 15
16 16 16 16 18 20 22 24 25 25 25 23 22 21 21 21 22 22 22 21 21 21 21 21 22 21 20 20 20 20 21 19 17 16 13 10 10 10 9 10 10 8 7 8 9 10 11 11 11 11 10 9 8 7 6 5 4 4 5 6 8 9 9 9 9 9 10 11 11 12 12 13 13 13 14 14 14 14 15 15 15 16 16 16 16
17 16 16 16 17 18 20 23 24 25 25 25 24 23 22 21 21 21 21 21 21 22 21 21 22 22 20 19 20 20 21 20 18 17 15 12 12 12 10 10 11 10 9 10 10 10 10 11 11 11 10 9 9 9 7 6 6 5 5 6 7 8 8 8 8 9 9 10 10 11 11 12 12 11 11 12 12 13 14 14 14 15 15 16 16
19 18 17 17 17 18 20 21 22 23 23 24 25 25 25 24 23 21 20 19 20 22 22 22 23 23 21 20 20 20 21 21 20 19 17 15 14 14 12 12 12 12 11 11 11 10 10 10 10 10 10 10 10 10 9 8 7 6 6 6 7 8 8 7 7 7 8 9 9 9 10 10 10 10 10 11 12 12 13 13 14 14 14 15 15
19 19 19 18 18 18 19 19 21 21 20 21 23 24 26 26 26 25 23 22 21 22 23 24 24 24 23 22 21 21 21 21 22 21 19 18 17 17 15 14 13 13 12 12 12 11 9 9 9 9 9 11 11 11 11 10 8 7 6 7 8 8 8 7 6 6 6 7 7 8 8 9 9 10 10 11 12 12 13 13 13 13 13 14 14
19 20 20 20 20 19 19 18 20 20 18 18 20 22 24 26 27 27 26 25 24 23 23 24 25 25 24 23 23 22 20 21 23 23 20 19 19 18 17 16 14 14 14 14 12 11 9 8 8 9 10 11 12 11 11 11 9 8 8 9 9 8 7 7 5 5 5 6 6 7 8 9 10 11 12 13 13 12 12 12 12 13 13 13 13
19 19 20 21 21 21 20 19 19 20 19 18 18 19 21 24 26 27 27 26 27 26 25 25 25 25 26 26 25 24 22 21 23 24 23 22 20 19 18 17 16 15 16 16 14 13 12 9 8 10 11 11 12 13 13 12 10 10 10 10 9 8 7 5 4 4 5 6 7 8 9 11 12 13 13 13 13 12 12 11 11 11 12 12 12
18 18 19 20 20 21 21 20 20 20 20 19 19 19 20 22 23 25 26 26 28 28 27 28 27 26 27 28 28 26 24 23 23 24 26 25 23 20 19 18 18 17 18 18 17 16 14 12 10 10 11 12 13 14 14 13 12 12 11 11 10 8 7 6 5 5 6 6 7 9 10 12 13 14 13 12 11 11 11 11 11 11 12 12 12
16 17 18 18 19 20 20 20 20 19 19 19 20 20 20 21 22 22 23 25 27 28 28 29 29 29 29 28 28 28 26 25 24 24 26 27 25 23 22 21 20 20 20 19 19 18 15 15 13 12 13 13 14 15 16 15 14 13 12 12 10 8 7 7 6 6 6 7 7 8 10 12 13 13 12 11 10 10 10 11 11 12 12 12 12
15 15 16 17 18 18 19 19 19 18 18 18 19 19 20 20 20 20 21 22 25 27 28 29 30 30 30 30 30 29 28 28 27 25 25 27 27 26 25 24 23 23 21 20 20 18 17 17 17 16 15 14 15 16 16 16 16 15 14 13 11 9 9 8 7 7 6 6 7 8 10 12 12 12 10 10 10 9 10 11 12 12 12 12 12
15 15 15 15 16 17 17 18 19 19 19 19 19 19 19 20 20 20 20 21 22 24 26 28 29 29 30 31 31 31 30 29 29 28 26 26 28 28 26 25 24 23 22 21 20 19 18 19 20 19 17 16 16 16 16 17 17 15 15 14 12 12 11 8 7 7 6 5 6 8 10 11 11 11 11 10 10 10 10 11 12 13 13 13 13
16 16 16 16 16 16 17 18 19 20 20 20 20 21 21 21 21 22 22 21 22 22 24 26 27 28 29 31 31 31 31 30 31 30 27 26 28 29 27 25 24 23 22 22 21 20 19 19 20 21 20 18 17 16 16 16 16 16 15 13 12 12 11 9 8 8 7 5 6 8 10 10 10 11 12 11 11 11 11 12 13 15 15 15 14
16 17 17 17 17 17 17 18 18 19 20 21 22 23 23 23 23 23 23 23 23 23 23 24 25 26 28 30 30 30 30 31 31 31 29 28 28 29 28 26 25 24 23 23 23 21 20 20 20 21 22 20 18 17 18 17 16 16 14 13 12 12 11 10 10 10 8 5 5 8 10 9 9 11 11 11 11 11 12 14 15 16 17 16 15
16 17 17 17 17 17 17 17 18 19 19 21 22 23 24 24 24 24 24 24 24 25 25 24 24 25 27 28 29 28 28 30 31 31 30 29 28 28 29 27 26 25 23 24 24 22 22 22 21 20 20 20 18 17 18 18 18 17 15 14 13 12 12 12 12 10 8 5 5 8 10 9 8 9 10 10 11 11 13 14 15 17 18 17 16
16 17 17 18 18 17 17 18 18 19 20 21 22 24 25 25 26 26 26 25 25 24 25 25 25 25 26 27 27 27 27 29 30 30 30 30 29 28 29 28 27 25 24 25 25 24 23 24 24 22 20 20 18 17 18 19 20 19 18 16 15 14 14 14 12 10 9 6 5 7 8 8 6 6 8 9 9 10 12 14 16 17 18 18 17
16 17 17 17 18 18 18 18 19 20 21 22 23 24 25 26 27 27 27 27 26 25 24 24 24 25 25 26 26 26 27 28 29 29 29 30 29 29 29 29 28 27 26 27 27 26 25 24 25 24 22 21 19 17 18 20 20 19 19 19 18 16 15 12 10 10 10 9 6 6 7 6 4 4 5 7 8 9 11 13 15 17 18 17 16
16 16 16 16 16 17 18 19 20 20 21 22 22 23 25 26 27 27 26 26 27 27 26 25 25 25 25 25 26 27 28 29 29 30 30 30 30 30 30 30 30 30 29 29 29 28 27 26 25 25 23 22 20 18 21 23 22 19 19 19 18 16 14 12 10 10 11 10 8 7 7 6 4 2 3 4 5 7 9 11 14 16 17 16 16
15 16 15 15 15 16 18 19 21 21 22 22 22 22 23 24 25 25 25 25 26 28 28 28 28 27 26 26 26 26 28 29 30 31 32 32 32 33 33 33 33 33 32 30 29 28 29 28 26 25 24 23 22 21 24 25 23 22 21 20 18 16 14 12 11 11 11 9 7 7 7 7 5 3 3 4 5 6 8 10 12 14 14 14 15
14 15 15 16 17 18 19 21 22 23 22 21 21 21 22 23 24 25 25 25 26 28 29 30 30 29 29 29 28 27 27 28 30 32 33 34 35 34 34 34 34 34 33 31 29 29 30 29 27 26 26 24 23 24 26 26 24 24 24 22 20 18 16 14 12 11 10 8 7 7 8 8 6 4 4 5 5 6 7 9 10 11 11 12 13
13 14 16 18 20 21 22 23 24 24 23 21 20 20 20 21 22 23 25 26 27 29 30 32 32 32 31 31 30 29 28 28 28 30 32 33 35 35 35 35 35 35 34 32 30 30 31 30 28 28 28 25 23 25 28 28 26 27 27 25 22 21 19 16 14 13 12 10 9 8 8 7 6 5 5 5 6 7 7 7 7 8 9 10 11
14 15 17 20 23 24 24 24 24 22 21 20 20 20 19 19 20 21 22 25 27 29 31 33 34 33 32 31 31 31 31 31 29 29 30 31 32 34 35 36 36 36 35 34 34 33 32 31 30 30 30 27 24 26 30 30 30 30 28 24 22 21 20 18 16 15 14 12 11 10 10 8 6 5 6 7 8 9 9 7 4 5 6 8 9
17 18 20 22 24 25 25 24 22 19 18 18 18 17 16 16 16 17 18 21 23 26 29 32 33 33 32 32 32 32 33 33 32 31 30 30 30 30 32 35 38 38 37 37 36 35 34 34 33 32 32 28 25 27 30 31 32 31 26 23 22 21 19 18 16 15 15 14 12 11 10 9 8 7 7 8 9 10 9 6 5 4 4 6 7
19 20 22 23 24 24 23 22 20 18 16 16 15 14 14 13 13 14 15 17 19 21 24 28 30 32 31 32 34 34 34 33 33 33 32 32 31 31 32 34 37 39 40 38 37 37 36 34 33 33 32 27 25 27 29 32 33 31 26 22 22 21 19 17 15 15 15 15 14 13 12 11 9 8 8 8 8 8 6 5 5 5 4 5 6
19 21 22 23 24 24 22 20 19 18 17 17 15 13 13 12 11 12 14 15 17 18 20 23 25 27 28 29 31 33 34 34 33 33 33 32 31 31 32 34 35 38 40 38 38 38 36 32 31 30 28 25 24 26 30 33 33 28 22 19 19 19 18 17 16 15 15 16 16 15 14 13 11 9 9 8 8 8 6 5 5 5 5 5 5
20 21 21 22 24 24 21 19 19 18 17 18 17 14 13 12 11 12 13 14 16 16 17 19 22 24 25 26 27 29 30 31 32 31 31 30 29 31 33 33 34 37 40 39 38 38 35 32 31 28 24 24 25 27 30 31 29 25 22 20 19 19 19 18 17 16 16 16 16 16 15 14 11 9 9 9 10 10 8 7 7 7 7 7 6
20 21 20 21 23 23 21 19 18 17 17 18 18 15 13 12 11 11 12 13 14 15 16 17 19 21 22 22 24 25 27 28 29 29 28 27 28 29 31 33 34 37 39 39 38 38 36 34 31 27 24 25 27 28 29 29 27 25 24 22 21 21 19 18 18 17 17 17 16 15 14 12 10 8 8 9 11 11 10 9 8 8 7 7 8
21 21 21 21 22 23 22 20 18 17 16 18 18 16 14 13 12 11 11 12 12 13 14 16 18 19 18 18 19 22 25 26 26 24 24 25 27 30 32 33 36 40 41 40 40 39 37 33 30 27 26 26 27 29 30 28 27 26 24 21 20 20 20 19 18 18 18 18 16 14 13 11 9 8 8 9 11 12 12 10 9 9 8 8 9
21 21 22 22 23 23 23 22 20 17 15 17 18 17 14 13 12 11 10 11 10 11 12 14 16 18 18 17 16 17 19 21 20 20 22 25 28 31 34 37 39 42 42 41 41 40 35 30 28 28 27 27 29 31 31 29 27 24 22 20 19 19 18 18 18 17 18 18 16 14 11 9 8 7 7 9 12 12 12 10 9 9 9 9 10
Wind_Direction
141 143 144 142 137 131 134 140 139 135 138 141 141 138 135 133 133 133 132 128 129 138 134 96 57 82 142 352 26 32 53 91 64 47 41 33 30 35 36 39 43 33 20 11 355 360 23 130 133 128 127 121 110 97 79 59 42 20 2 6 41 61 69 67 58 51 48 50 45 37 33 33 34 34 35 33 30 27 24 24 24 25 24 21 18
146 144 144 148 146 139 139 145 144 139 142 153 156 151 144 143 143 146 148 139 140 136 135 281 284 175 236 309 27 44 80 100 74 52 42 36 31 36 41 41 45 46 40 38 45 66 48 28 119 142 135 137 130 107 86 43 26 11 356 346 348 6 29 40 46 40 30 24 24 25 19 18 22 25 28 27 24 20 15 14 15 17 16 13 10
156 149 149 156 160 154 152 155 150 140 139 156 169 167 153 153 151 146 150 140 119 85 268 262 246 220 247 253 357 32 79 97 69 49 41 37 27 26 36 39 41 45 45 47 54 67 57 29 32 149 141 147 163 130 95 41 15 6 359 353 352 357 1 7 12 14 13 4 355 357 353 355 1 7 15 17 16 11 7 4 4 7 7 5 3
170 161 158 164 170 163 160 168 160 147 153 165 174 177 166 169 162 147 145 131 95 102 172 233 227 232 254 213 202 290 13 87 64 40 31 29 20 14 23 29 33 39 42 44 50 56 53 37 35 64 123 162 209 218 74 29 358 357 355 349 353 4 5 4 1 357 358 353 342 337 336 333 333 337 349 357 1 359 355 353 354 357 357 356 356
185 174 168 169 176 171 170 183 183 171 185 190 186 182 174 181 173 158 156 159 189 158 127 167 196 246 283 300 247 257 269 297 28 16 15 13 7 356 357 12 23 33 38 39 44 49 51 49 48 49 59 95 203 264 30 346 332 345 345 334 342 3 10 8 3 356 354 352 343 334 330 327 323 320 323 330 335 335 335 337 339 344 346 346 346
196 185 180 178 179 179 185 198 201 198 201 198 193 189 181 182 174 168 173 177 194 205 164 161 153 105 330 346 351 291 267 280 339 339 344 351 349 336 325 345 7 19 25 30 37 44 48 50 52 52 54 58 59 60 51 17 352 350 340 326 331 347 360 3 1 357 355 351 344 337 333 330 325 322 321 321 321 321 320 320 323 327 330 331 333
199 192 188 185 186 188 197 205 207 207 207 203 197 199 195 184 173 174 179 181 191 204 216 214 182 168 236 312 353 338 293 281 293 311 320 331 336 332 325 328 341 351 357 15 28 33 40 43 47 49 51 52 51 54 53 46 33 14 352 339 339 346 351 353 351 351 350 346 342 337 335 334 331 328 326 325 324 321 318 317 317 317 318 321 323
198 197 196 194 197 201 207 210 210 210 211 212 210 213 209 192 185 188 189 187 189 194 209 224 215 208 232 250 300 325 324 299 282 313 334 336 336 357 13 352 346 355 354 1 12 16 21 27 32 34 37 42 42 43 48 50 45 36 23 7 4 3 2 358 355 352 347 343 340 335 334 333 333 332 330 331 330 327 325 322 320 318 316 317 319
205 204 204 203 205 208 214 216 216 217 215 217 220 223 219 202 195 196 200 202 201 193 197 211 214 217 227 221 251 298 323 321 304 330 354 348 342 3 18 5 360 9 10 2 356 358 1 4 10 12 14 18 17 18 24 33 35 34 28 21 19 16 14 11 5 360 354 349 344 339 336 334 333 333 332 332 332 332 331 329 328 326 324 323 322
227 224 216 209 212 212 216 219 220 223 221 221 224 222 216 208 202 200 203 211 214 204 196 203 204 209 222 217 220 252 296 317 310 308 326 333 332 340 355 359 358 5 11 5 358 352 351 354 357 357 357 355 350 347 350 1 8 7 3 2 4 4 6 8 5 2 358 354 350 345 340 337 336 334 333 332 331 331 330 330 331 331 331 330 328
230 234 229 218 218 219 219 219 219 222 222 223 226 221 215 213 212 211 212 215 219 214 205 208 205 205 217 222 223 228 249 287 299 295 297 304 310 315 320 328 332 340 359 1 353 348 343 340 343 346 344 342 338 332 329 333 340 341 340 340 340 341 343 347 350 350 349 347 345 343 340 338 336 334 333 332 331 330 329 329 330 330 331 331 331
224 229 232 227 223 225 227 223 220 223 224 223 225 224 221 222 221 220 220 218 220 219 214 217 214 210 217 226 232 232 231 253 281 289 288 289 292 301 309 310 306 309 329 345 344 343 344 338 334 336 335 335 335 331 325 321 323 325 325 326 328 329 329 329 332 335 336 336 335 334 333 332 331 331 330 330 331 331 330 329 329 329 329 329 330
225 225 227 230 228 229 235 233 227 227 228 228 230 229 225 224 225 223 222 222 223 221 219 221 218 215 221 226 229 234 230 235 262 278 284 285 284 290 299 299 296 301 311 325 337 339 346 349 341 336 330 327 328 329 325 319 317 317 315 317 320 322 322 323 324 324 323 324 325 326 326 326 326 325 325 325 326 327 327 327 326 326 326 327 326
229 229 226 229 229 230 235 238 236 232 229 229 230 231 228 224 225 223 222 225 227 225 220 219 218 216 221 226 225 229 233 238 255 267 276 281 280 282 284 286 290 301 305 309 325 332 334 338 336 331 324 320 322 324 322 320 317 311 307 310 315 318 319 320 321 322 320 317 316 316 317 319 319 319 319 318 318 319 320 320 320 322 323 323 323
230 235 233 232 231 230 231 235 239 237 233 231 229 228 227 225 224 223 221 223 227 226 221 219 219 214 216 222 218 220 230 243 257 264 269 270 266 264 264 268 279 289 290 290 301 313 318 318 316 316 316 316 317 316 315 319 319 308 303 309 316 319 319 319 320 320 321 319 316 314 312 312 311 312 312 311 310 310 310 312 313 316 318 319 319
235 241 242 238 237 235 231 232 236 238 238 236 233 229 227 227 226 224 224 226 226 225 224 223 221 217 215 209 203 212 222 233 260 264 260 255 251 251 252 254 257 257 265 276 287 298 302 301 302 308 313 311 307 304 303 308 312 304 300 308 314 317 317 318 320 319 320 319 318 316 313 310 307 306 305 304 304 304 305 307 309 311 312 313 314
246 251 251 245 242 241 237 234 234 237 239 238 236 234 231 230 230 229 230 231 232 230 227 225 223 224 223 211 199 205 206 208 251 253 243 248 254 256 254 252 248 245 256 269 277 284 292 295 299 302 299 292 286 290 290 289 293 291 293 305 312 313 311 312 315 316 316 315 314 313 311 310 307 304 302 302 302 302 303 305 306 307 308 307 307
253 256 255 250 248 244 240 236 235 237 238 239 238 236 234 233 231 232 232 233 236 236 231 228 226 224 226 226 221 209 199 202 220 226 244 267 265 263 262 260 254 251 258 266 271 278 288 293 295 292 288 288 287 290 292 282 275 275 277 295 310 314 313 311 310 310 310 310 310 310 310 311 310 308 307 307 308 308 308 307 306 305 305 305 304
251 254 254 252 250 244 238 235 235 236 237 239 240 238 236 235 233 234 234 234 236 237 236 234 230 226 225 227 225 215 206 208 213 230 271 284 275 272 279 278 270 264 265 270 274 280 285 286 285 285 288 294 292 288 290 281 267 265 268 285 304 312 313 310 306 304 305 307 308 309 311 314 315 315 316 316 317 317 316 315 312 308 305 303 302
245 249 251 251 249 243 238 236 235 235 236 238 240 241 240 238 235 233 233 234 235 238 242 238 234 231 227 222 220 218 216 217 217 223 258 276 277 276 282 283 275 271 268 268 269 272 275 276 275 276 280 288 290 286 286 280 267 266 278 291 297 303 308 308 305 301 301 303 305 307 308 311 313 314 315 316 316 315 315 316 316 314 310 305 302
242 245 247 247 247 245 243 243 242 240 239 240 242 243 242 240 238 235 234 236 238 240 244 242 236 232 228 223 219 218 219 223 224 221 238 261 270 275 284 283 272 272 269 262 260 261 264 267 269 269 269 276 286 285 282 278 272 276 287 289 295 304 308 307 305 303 302 302 302 302 302 304 305 306 308 309 311 311 312 314 315 316 314 311 308
242 243 244 245 245 245 245 246 247 246 244 243 244 244 243 241 240 239 238 239 241 242 244 244 238 231 228 226 223 221 220 223 227 226 228 243 257 270 285 284 266 266 271 263 257 256 260 265 268 267 266 273 279 277 274 271 271 278 285 289 298 307 308 308 309 307 306 305 304 304 304 304 305 306 308 310 312 313 314 316 317 318 318 316 313
241 242 243 243 244 244 245 246 247 248 247 245 245 245 245 244 243 242 241 241 243 243 242 242 236 230 228 227 226 225 224 225 228 226 222 230 247 263 277 277 262 262 275 269 263 261 262 265 268 268 270 276 271 261 263 260 260 273 279 288 298 304 305 306 309 310 309 309 309 311 312 312 313 313 314 315 315 316 317 319 319 319 320 320 320
243 244 245 244 244 243 243 244 245 247 248 247 246 246 247 247 246 244 243 244 244 244 242 240 237 233 230 228 227 224 225 227 226 222 220 227 243 256 267 266 259 264 279 273 268 267 265 265 268 267 268 273 265 251 248 246 255 272 278 290 298 302 306 307 308 310 310 311 311 313 315 315 315 314 315 316 316 317 318 318 318 318 319 321 323
248 249 251 252 250 247 245 245 247 249 250 250 249 249 249 250 249 246 245 246 246 246 245 242 241 240 237 234 231 227 225 224 221 218 217 225 238 245 255 260 260 268 276 273 269 268 267 269 271 266 264 268 260 247 239 243 263 280 288 295 296 300 308 308 307 309 309 308 308 311 314 315 314 313 314 315 316 317 316 316 316 317 318 320 321
251 251 254 254 251 249 247 245 247 250 251 251 251 251 251 251 251 249 248 248 249 249 248 244 243 244 242 238 234 231 227 222 219 219 217 223 235 239 245 258 266 270 271 269 267 267 268 272 273 267 264 262 253 242 235 241 259 274 285 287 284 292 302 303 305 308 306 305 308 313 318 319 319 319 319 319 319 319 317 316 316 316 317 318 320
255 255 255 253 248 246 246 246 245 247 249 251 252 252 252 251 250 250 250 250 251 251 248 246 244 243 243 241 238 235 230 225 223 224 224 225 233 240 244 252 264 268 265 263 264 267 268 270 271 264 256 252 246 239 233 238 252 265 274 275 276 288 299 303 308 309 305 306 310 316 320 323 326 327 327 327 325 323 321 321 321 321 323 323 323
257 258 259 258 254 249 248 248 246 244 247 252 252 251 252 253 252 252 251 251 253 253 250 247 246 245 244 244 242 239 234 230 228 229 230 229 232 240 242 245 256 264 262 260 263 269 270 271 272 264 250 246 244 238 235 242 253 261 263 268 275 288 300 305 309 308 305 306 308 312 318 323 327 330 333 334 332 329 325 325 326 326 327 327 327
255 257 258 259 258 255 252 251 249 246 244 248 253 253 252 253 254 254 253 254 255 255 253 250 250 250 248 246 244 240 235 232 232 231 231 231 231 234 237 241 248 255 259 261 265 272 273 272 274 265 249 244 243 237 239 248 255 259 261 265 271 281 293 299 301 300 299 301 306 313 321 328 331 332 335 337 337 335 332 329 329 328 329 329 328
255 256 258 259 260 259 257 255 253 251 247 245 250 256 256 254 254 255 254 255 254 254 252 251 252 253 252 248 246 241 236 234 235 235 233 232 231 228 231 238 244 248 253 257 260 262 259 252 252 251 244 244 245 239 243 251 253 256 260 262 265 273 284 284 280 285 292 299 308 318 328 335 339 340 341 341 340 339 336 334 332 330 330 330 329
253 254 256 260 262 263 263 261 256 253 252 249 247 250 253 254 254 255 254 253 254 254 253 252 253 255 254 251 248 245 240 237 238 238 235 234 233 231 229 235 243 247 249 252 255 258 255 245 235 234 234 237 239 239 245 252 252 254 259 259 259 265 272 264 258 273 288 297 308 322 334 342 347 349 348 345 342 340 339 338 336 336 336 337 337
253 252 253 256 260 262 263 262 258 256 253 251 248 246 247 249 251 252 252 252 253 254 255 255 256 255 253 250 249 248 246 243 241 240 238 235 234 234 233 235 242 247 249 252 255 255 255 250 243 238 236 234 234 239 246 249 248 249 251 252 252 251 251 248 252 269 281 294 311 330 343 350 353 354 350 344 342 344 345 345 345 346 347 347 347
255 256 255 254 257 260 260 258 258 256 253 251 250 247 246 247 248 249 249 250 251 254 254 255 255 254 252 249 249 250 251 249 245 241 240 238 236 236 236 238 241 246 250 253 256 253 250 252 252 247 242 239 235 238 244 243 242 245 246 246 242 234 236 241 247 261 275 292 317 339 350 354 355 354 350 346 346 349 351 354 356 355 356 356 356
255 257 257 255 255 257 258 257 256 255 255 254 254 252 250 250 250 250 249 248 249 251 252 252 253 253 252 250 249 249 251 252 248 243 240 239 238 237 238 239 241 246 250 254 258 255 249 249 252 251 248 245 238 236 240 242 242 245 246 242 229 221 228 236 243 252 264 286 315 339 347 352 355 353 351 349 350 353 357 2 4 4 3 2 2
254 256 257 257 258 259 259 260 259 258 258 258 258 259 258 255 254 254 253 252 252 253 253 253 252 252 252 252 251 250 249 250 247 243 239 238 238 238 240 241 243 246 250 253 255 255 251 249 251 254 252 246 239 236 237 241 243 244 243 235 220 218 227 231 235 247 258 278 311 332 341 348 353 351 349 349 351 355 360 4 6 7 6 5 3
255 258 259 260 261 262 263 264 265 264 262 261 261 262 262 262 260 259 258 257 257 257 256 255 253 252 252 252 251 250 248 247 245 242 240 239 239 239 240 241 242 245 249 252 252 254 254 249 248 254 255 248 240 235 235 237 239 240 236 223 212 216 226 226 228 243 259 279 313 328 334 342 349 349 346 347 351 355 359 1 2 3 4 3 1
256 257 260 262 263 263 264 265 267 267 266 264 263 263 264 264 264 263 263 262 261 261 260 258 255 252 252 253 253 251 247 245 243 242 240 240 240 241 240 239 240 243 247 250 252 255 255 252 246 247 252 250 238 229 233 237 235 231 224 214 212 214 216 220 227 241 260 281 311 321 321 326 339 346 343 342 348 354 355 356 356 357 360 1 359
257 256 259 262 264 265 266 267 268 268 268 266 265 265 265 266 266 266 266 267 267 267 266 264 260 256 254 253 251 249 247 244 243 242 241 241 243 242 239 238 238 240 244 248 252 254 255 252 247 243 246 249 239 225 227 235 233 229 220 207 201 202 208 218 230 245 263 280 299 307 304 307 323 335 335 335 341 347 349 351 352 354 357 359 357
257 258 260 261 263 265 267 269 270 270 271 270 268 266 266 266 267 267 268 268 268 268 269 269 266 264 260 255 250 246 246 246 245 243 242 242 245 245 243 242 240 240 242 246 250 251 250 246 243 242 244 248 244 227 220 226 228 227 223 211 198 197 205 216 229 249 264 274 281 285 283 285 303 322 323 324 330 338 344 348 349 352 356 358 358
256 257 259 262 265 267 270 272 275 277 278 276 272 268 266 266 267 267 267 267 267 267 268 269 270 269 266 260 253 247 246 247 247 246 245 245 246 246 246 246 245 243 242 244 247 248 245 239 238 241 241 242 245 233 217 218 219 218 221 221 213 209 211 215 226 244 258 264 263 262 260 259 267 293 304 306 318 330 337 344 348 350 354 357 358
255 258 262 268 272 276 278 279 281 285 285 282 277 271 267 265 265 266 266 267 268 269 269 269 269 268 268 265 260 253 249 247 247 248 247 248 248 248 247 247 246 245 244 243 244 244 239 235 236 238 235 236 243 236 218 214 217 217 217 219 217 215 215 219 228 240 250 254 243 229 228 234 240 241 251 273 301 320 329 339 344 346 350 354 356
257 263 272 281 286 289 290 288 288 289 290 285 277 270 265 263 262 264 265 267 269 271 272 272 271 270 268 266 264 261 256 252 250 248 247 248 248 247 248 248 245 245 244 242 242 240 237 237 237 233 229 232 240 235 225 221 219 217 216 216 215 215 214 214 220 232 243 247 232 214 213 219 221 215 224 254 288 308 320 333 338 338 342 349 353
261 270 281 289 293 295 294 294 291 288 287 283 273 265 263 263 263 264 265 267 269 271 273 274 274 273 270 267 264 262 260 258 255 252 249 248 248 247 247 248 247 246 244 242 241 241 238 238 238 232 229 233 236 231 226 223 218 216 217 215 215 219 220 218 221 228 233 234 228 218 213 211 208 207 225 253 276 292 307 323 329 326 330 341 349
265 276 285 289 293 294 295 295 291 284 280 275 268 263 262 265 267 267 267 267 268 269 271 273 273 273 270 267 264 260 258 258 257 256 251 248 248 248 246 247 247 246 245 244 244 243 239 237 237 234 231 233 232 226 222 220 218 217 215 213 216 223 228 229 230 226 220 220 224 219 209 203 204 219 244 263 273 283 294 303 302 302 317 332 340
271 281 287 289 291 291 291 291 288 281 273 266 262 262 264 267 271 273 272 270 268 267 267 268 269 269 268 265 262 259 256 254 253 254 252 249 247 246 245 245 245 246 246 246 247 245 241 240 240 235 229 230 231 226 222 222 222 217 211 211 218 226 231 232 229 220 211 211 216 214 202 196 207 233 255 266 274 280 283 270 243 255 299 324 332
274 282 287 289 290 289 288 286 284 280 273 264 258 260 265 269 274 278 279 276 273 269 265 263 264 265 266 264 262 259 255 252 251 250 251 250 248 247 245 243 242 243 243 244 245 243 239 239 240 235 230 231 232 228 224 224 223 219 215 216 220 225 229 226 219 213 210 209 210 209 201 196 207 236 255 260 265 270 268 244 231 246 283 311 325
276 282 285 288 290 288 284 282 281 280 273 261 253 254 261 267 275 283 286 285 282 277 269 264 264 266 269 268 265 262 257 252 250 250 250 250 248 247 246 243 241 241 241 240 240 237 231 231 233 231 230 231 230 226 225 224 221 217 218 220 222 226 226 221 215 212 211 209 209 209 208 206 214 235 248 247 245 244 235 223 231 251 273 291 309
277 281 283 288 292 289 282 280 281 280 269 256 248 249 257 266 276 285 291 294 293 291 285 275 266 265 268 270 268 265 259 253 251 252 253 252 249 247 246 245 243 240 237 235 234 230 227 226 224 222 224 226 222 220 222 220 216 211 211 213 218 224 225 220 215 211 208 207 207 209 213 215 219 229 236 235 233 231 226 226 237 252 264 275 288
276 281 285 290 293 289 281 278 283 284 271 252 244 247 255 264 274 284 291 297 299 301 302 295 281 268 265 266 266 262 258 255 254 254 255 255 253 250 247 244 241 238 234 230 227 223 222 220 214 211 216 218 216 215 215 213 213 214 215 216 220 227 230 225 214 206 206 209 208 211 218 223 222 223 224 223 224 226 227 231 240 245 251 262 277
278 283 287 290 290 285 279 278 283 288 273 252 243 245 252 261 271 281 289 297 303 307 310 309 300 286 274 269 266 259 254 252 253 255 258 257 256 255 251 242 235 231 228 224 218 215 213 208 203 205 208 207 208 210 208 207 212 217 220 225 231 234 233 228 217 206 207 211 214 217 223 227 225 220 216 212 213 220 228 233 236 237 244 261 275
279 283 286 288 285 281 278 278 282 286 276 260 250 246 247 256 264 273 285 295 305 314 316 313 308 299 291 285 280 270 258 252 253 260 262 260 259 253 244 238 231 225 220 216 210 203 199 197 199 203 204 201 202 204 203 204 209 215 221 229 235 235 230 224 218 212 210 213 218 224 227 228 222 215 213 207 202 208 221 230 232 235 246 263 273
Height
1568 1569 1569 1570 1571 1571 1571 1571 1572 1573 1573 1573 1573 1573 1573 1573 1574 1574 1575 1576 1576 1576 1576 1577 1577 1577 1577 1578 1577 1577 1577 1577 1578 1577 1577 1576 1575 1575 1574 1573 1573 1572 1572 1572 1571 1571 1571 1571 1571 1571 1571 1571 1571 1570 1571 1570 1570 1570 1570 1570 1570 1569 1569 1568 1568 1568 1568 1568 1568 1567 1567 1566 1566 1565 1565 1564 1563 1563 1562 1561 1560 1560 1559 1558 1557
1569 1569 1570 1570 1571 1571 1572 1572 1572 1573 1573 1574 1574 1574 1573 1573 1573 1574 1575 1576 1576 1576 1576 1577 1578 1578 1578 1578 1578 1577 1578 1578 1578 1578 1577 1577 1577 1576 1575 1575 1574 1573 1573 1572 1572 1572 1571 1571 1572 1572 1571 1571 1571 1571 1571 1571 1571 1571 1571 1571 1570 1570 1569 1569 1569 1569 1569 1568 1568 1568 1568 1567 1567 1566 1566 1565 1564 1564 1563 1562 1561 1561 1560 1559 1558
1570 1570 1570 1571 1571 1571 1572 1572 1572 1573 1573 1574 1574 1574 1573 1573 1573 1574 1575 1576 1576 1577 1577 1577 1578 1578 1578 1579 1578 1578 1578 1578 1578 1578 1578 1578 1578 1577 1577 1576 1575 1575 1574 1573 1572 1572 1572 1572 1572 1572 1572 1572 1572 1572 1571 1571 1571 1571 1571 1571 1571 1570 1570 1570 1569 1569 1569 1569 1569 1568 1568 1568 1567 1567 1566 1566 1565 1564 1563 1563 1562 1561 1561 1560 1559
1570 1571 1571 1571 1571 1571 1572 1572 1572 1572 1573 1574 1574 1574 1573 1573 1573 1574 1575 1576 1577 1578 1578 1578 1578 1578 1578 1579 1579 1578 1578 1578 1578 1578 1578 1578 1578 1578 1577 1577 1577 1576 1575 1574 1573 1573 1572 1573 1573 1572 1572 1573 1573 1572 1572 1572 1572 1572 1572 1572 1571 1571 1570 1570 1570 1570 1569 1569 1569 1569 1568 1568 1568 1567 1566 1566 1565 1565 1564 1563 1562 1562 1561 1560 1560
1571 1571 1571 1571 1572 1572 1571 1571 1571 1572 1573 1573 1574 1574 1573 1573 1574 1574 1575 1576 1577 1578 1579 1579 1579 1579 1579 1579 1579 1579 1578 1578 1578 1578 1578 1578 1579 1579 1578 1578 1577 1577 1576 1576 1575 1574 1574 1574 1573 1573 1573 1573 1573 1573 1572 1572 1572 1572 1572 1572 1572 1571 1571 1570 1570 1570 1570 1569 1569 1569 1569 1568 1568 1567 1567 1566 1566 1565 1564 1563 1562 1562 1561 1561 1560
1571 1571 1571 1571 1571 1571 1571 1571 1571 1572 1572 1573 1574 1573 1573 1574 1574 1575 1575 1576 1577 1578 1578 1579 1579 1579 1579 1579 1579 1579 1579 1578 1578 1578 1578 1579 1579 1579 1579 1578 1578 1577 1577 1576 1576 1575 1575 1575 1574 1574 1574 1574 1574 1573 1573 1573 1573 1573 1573 1573 1572 1572 1571 1571 1571 1570 1570 1570 1569 1569 1569 1568 1568 1568 1567 1566 1566 1565 1564 1563 1563 1562 1561 1561 1560
1571 1571 1571 1571 1571 1571 1571 1571 1572 1572 1572 1573 1573 1573 1574 1574 1574 1575 1575 1575 1576 1577 1577 1578 1578 1579 1579 1579 1579 1580 1579 1578 1578 1578 1578 1578 1579 1579 1579 1578 1578 1578 1577 1577 1576 1576 1576 1576 1575 1575 1575 1575 1574 1574 1573 1573 1573 1573 1573 1573 1573 1572 1572 1571 1571 1571 1570 1570 1570 1569 1569 1569 1568 1568 1567 1567 1566 1565 1564 1564 1563 1562 1561 1561 1560
1570 1570 1571 1571 1571 1571 1571 1572 1572 1572 1572 1573 1573 1573 1574 1574 1574 1575 1575 1575 1576 1576 1577 1577 1578 1578 1578 1579 1579 1580 1579 1579 1578 1578 1578 1578 1578 1578 1578 1578 1578 1578 1577 1577 1577 1576 1576 1576 1576 1576 1576 1575 1575 1575 1574 1574 1574 1573 1573 1573 1573 1573 1572 1572 1571 1571 1571 1570 1570 1570 1569 1569 1568 1568 1567 1567 1566 1565 1565 1564 1563 1562 1562 1561 1560
1569 1570 1570 1571 1571 1571 1572 1572 1572 1572 1572 1572 1572 1573 1573 1574 1574 1574 1574 1575 1575 1576 1576 1577 1577 1577 1577 1578 1578 1579 1579 1578 1578 1578 1577 1578 1578 1578 1578 1578 1578 1578 1578 1577 1577 1577 1576 1576 1576 1576 1576 1576 1575 1575 1575 1574 1574 1574 1574 1573 1573 1573 1572 1572 1572 1571 1571 1571 1570 1570 1570 1569 1569 1568 1568 1567 1566 1566 1565 1564 1563 1562 1562 1561 1560
1569 1570 1570 1571 1571 1571 1572 1572 1572 1572 1572 1573 1573 1573 1573 1574 1574 1574 1574 1574 1575 1576 1576 1576 1576 1577 1577 1577 1577 1578 1578 1578 1578 1577 1577 1577 1577 1577 1577 1577 1578 1578 1577 1577 1577 1577 1576 1576 1576 1576 1576 1576 1576 1576 1575 1575 1574 1574 1574 1574 1573 1573 1572 1572 1572 1571 1571 1571 1571 1570 1570 1570 1569 1569 1568 1567 1567 1566 1565 1564 1563 1563 1562 1561 1560
1570 1570 1570 1571 1571 1572 1572 1572 1572 1572 1572 1573 1573 1573 1573 1574 1574 1574 1574 1574 1574 1576 1576 1576 1576 1576 1577 1577 1577 1577 1577 1577 1577 1577 1576 1576 1576 1576 1576 1577 1577 1577 1577 1577 1577 1577 1576 1576 1576 1576 1576 1576 1576 1576 1576 1575 1575 1574 1574 1574 1574 1573 1573 1572 1572 1572 1571 1571 1571 1570 1570 1570 1569 1569 1568 1568 1567 1566 1565 1565 1564 1563 1562 1561 1560
1570 1570 1570 1571 1571 1571 1572 1572 1572 1572 1572 1572 1573 1573 1573 1573 1573 1573 1574 1574 1574 1575 1575 1575 1576 1576 1576 1576 1577 1577 1576 1576 1576 1576 1576 1575 1575 1575 1575 1575 1576 1576 1576 1576 1576 1576 1576 1576 1576 1576 1576 1576 1575 1575 1575 1575 1575 1575 1574 1574 1574 1573 1573 1572 1572 1572 1571 1571 1571 1570 1570 1570 1569 1569 1568 1568 1567 1566 1566 1565 1564 1563 1562 1561 1560
1569 1570 1570 1570 1571 1571 1571 1571 1572 1572 1572 1572 1572 1573 1573 1573 1573 1573 1573 1573 1573 1574 1574 1574 1575 1575 1575 1576 1576 1576 1575 1575 1575 1575 1575 1575 1574 1574 1574 1574 1574 1575 1575 1575 1575 1575 1575 1575 1575 1575 1575 1575 1575 1575 1575 1575 1575 1575 1574 1574 1574 1574 1573 1573 1572 1572 1571 1571 1571 1570 1570 1570 1569 1569 1568 1568 1567 1566 1565 1565 1564 1563 1562 1561 1560
1569 1569 1569 1569 1570 1570 1570 1570 1571 1572 1572 1571 1572 1572 1572 1572 1572 1572 1572 1572 1572 1572 1573 1573 1574 1574 1574 1575 1575 1575 1574 1574 1573 1573 1573 1574 1574 1574 1574 1574 1574 1574 1574 1574 1574 1574 1574 1574 1574 1574 1574 1574 1575 1575 1575 1575 1575 1575 1574 1574 1574 1573 1573 1572 1572 1572 1571 1571 1571 1570 1570 1569 1569 1568 1568 1567 1567 1566 1565 1564 1563 1562 1561 1560 1559
1568 1568 1568 1568 1569 1569 1569 1570 1570 1570 1571 1570 1571 1571 1571 1571 1571 1572 1572 1571 1571 1571 1572 1572 1573 1573 1573 1574 1574 1573 1573 1572 1572 1572 1572 1573 1573 1573 1573 1573 1573 1573 1573 1573 1573 1573 1573 1573 1573 1573 1573 1574 1574 1574 1574 1574 1574 1574 1574 1574 1573 1573 1572 1572 1572 1571 1571 1570 1570 1570 1569 1569 1568 1568 1567 1567 1566 1565 1564 1563 1563 1562 1561 1560 1559
1566 1567 1567 1567 1567 1568 1568 1569 1569 1569 1569 1569 1569 1570 1570 1570 1570 1571 1570 1570 1570 1570 1570 1571 1571 1572 1572 1572 1572 1572 1572 1571 1571 1571 1571 1572 1572 1572 1572 1572 1572 1572 1572 1572 1572 1571 1571 1571 1572 1572 1573 1573 1573 1573 1573 1573 1574 1574 1573 1573 1573 1572 1572 1572 1571 1571 1570 1570 1569 1569 1569 1568 1568 1567 1567 1566 1565 1564 1564 1563 1562 1561 1560 1559 1558
1565 1566 1566 1566 1566 1567 1567 1568 1568 1568 1568 1568 1568 1569 1569 1569 1569 1569 1569 1569 1569 1569 1569 1569 1570 1570 1571 1571 1571 1571 1570 1570 1570 1570 1570 1570 1571 1571 1571 1571 1571 1571 1571 1571 1571 1570 1570 1570 1571 1571 1572 1572 1572 1572 1572 1573 1573 1573 1573 1572 1572 1572 1571 1571 1571 1570 1569 1569 1568 1568 1568 1567 1567 1566 1566 1565 1564 1563 1562 1562 1561 1560 1559 1558 1557
1564 1564 1565 1565 1565 1565 1566 1566 1567 1567 1567 1567 1567 1567 1568 1568 1568 1568 1568 1568 1568 1568 1568 1568 1569 1569 1569 1569 1569 1569 1569 1569 1569 1569 1569 1570 1570 1570 1570 1570 1570 1570 1570 1570 1570 1569 1569 1569 1569 1570 1570 1571 1571 1571 1572 1572 1572 1572 1571 1571 1571 1571 1571 1570 1570 1569 1569 1568 1568 1567 1567 1566 1566 1565 1565 1564 1563 1562 1561 1561 1560 1559 1558 1557 1557
1562 1563 1563 1564 1564 1564 1564 1565 1565 1565 1565 1565 1565 1565 1566 1566 1567 1567 1567 1567 1567 1567 1567 1567 1567 1567 1567 1568 1568 1568 1568 1568 1568 1568 1568 1569 1569 1569 1569 1569 1569 1569 1569 1569 1568 1569 1569 1568 1569 1569 1569 1570 1570 1570 1571 1571 1571 1571 1571 1571 1570 1570 1570 1570 1569 1569 1568 1568 1567 1567 1566 1565 1565 1564 1563 1563 1562 1561 1560 1560 1559 1558 1557 1557 1556
1561 1561 1562 1562 1563 1563 1563 1564 1564 1564 1563 1563 1563 1564 1564 1565 1565 1565 1565 1565 1565 1565 1566 1566 1566 1566 1566 1566 1566 1566 1566 1566 1566 1566 1567 1567 1568 1569 1569 1568 1568 1568 1567 1567 1568 1568 1568 1568 1568 1568 1568 1569 1569 1569 1569 1570 1570 1570 1570 1570 1570 1570 1570 1569 1569 1568 1568 1567 1566 1566 1565 1565 1564 1563 1563 1562 1561 1560 1560 1559 1558 1557 1556 1555 1555
1559 1559 1560 1561 1561 1562 1562 1562 1562 1562 1562 1562 1562 1562 1562 1562 1563 1563 1563 1563 1564 1564 1564 1564 1564 1565 1565 1565 1565 1565 1565 1565 1565 1564 1565 1566 1566 1567 1568 1567 1567 1567 1566 1566 1566 1567 1567 1567 1568 1568 1568 1569 1568 1568 1568 1569 1569 1569 1569 1569 1569 1569 1569 1568 1568 1567 1567 1566 1566 1565 1564 1564 1563 1562 1562 1561 1560 1559 1559 1558 1557 1556 1555 1554 1553
1557 1557 1558 1559 1559 1560 1560 1560 1560 1560 1560 1560 1559 1559 1560 1560 1560 1561 1561 1562 1562 1562 1562 1563 1563 1563 1564 1564 1563 1563 1563 1563 1563 1563 1563 1564 1565 1566 1566 1566 1566 1566 1565 1565 1565 1566 1566 1566 1567 1567 1568 1568 1568 1568 1568 1568 1568 1569 1569 1569 1569 1568 1568 1568 1567 1567 1566 1565 1565 1564 1563 1563 1562 1561 1561 1560 1559 1558 1558 1557 1556 1555 1554 1553 1552
1555 1555 1556 1556 1557 1558 1558 1559 1559 1558 1558 1558 1557 1557 1558 1558 1558 1559 1559 1560 1560 1560 1560 1561 1561 1562 1562 1562 1562 1562 1562 1562 1562 1562 1562 1562 1563 1564 1565 1565 1565 1564 1564 1564 1564 1564 1565 1565 1565 1566 1567 1567 1567 1567 1567 1568 1568 1568 1568 1568 1568 1568 1567 1567 1566 1566 1565 1564 1564 1563 1563 1562 1561 1561 1560 1559 1558 1557 1557 1556 1555 1554 1553 1552 1551
1553 1553 1554 1554 1555 1555 1555 1556 1556 1556 1556 1555 1555 1555 1556 1556 1556 1556 1557 1557 1558 1558 1558 1559 1559 1560 1560 1560 1560 1560 1560 1560 1561 1561 1560 1560 1561 1562 1563 1563 1563 1563 1563 1563 1563 1563 1564 1564 1564 1565 1566 1566 1566 1566 1566 1567 1567 1567 1567 1567 1567 1567 1566 1566 1565 1565 1564 1564 1563 1563 1562 1561 1560 1560 1559 1558 1557 1556 1555 1555 1554 1553 1552 1551 1551
1551 1551 1552 1552 1552 1552 1553 1553 1554 1554 1553 1553 1553 1553 1554 1554 1554 1554 1555 1555 1556 1556 1556 1557 1557 1558 1558 1559 1559 1559 1559 1559 1559 1559 1559 1559 1559 1560 1561 1562 1562 1562 1562 1562 1562 1563 1563 1563 1563 1564 1564 1565 1565 1565 1565 1566 1566 1566 1566 1566 1566 1566 1566 1565 1565 1564 1564 1563 1562 1562 1561 1561 1560 1559 1558 1557 1556 1555 1554 1554 1553 1552 1551 1550 1550
1549 1549 1550 1550 1550 1550 1550 1550 1550 1551 1551 1551 1551 1551 1551 1551 1552 1552 1553 1553 1554 1554 1555 1555 1555 1556 1556 1557 1557 1557 1557 1557 1557 1557 1557 1557 1558 1558 1559 1560 1561 1560 1561 1561 1561 1562 1562 1562 1562 1563 1563 1563 1563 1564 1564 1564 1565 1565 1565 1565 1565 1565 1565 1564 1564 1563 1563 1562 1562 1561 1561 1560 1559 1558 1557 1557 1556 1555 1554 1553 1552 1551 1550 1550 1549
1546 1546 1547 1547 1547 1548 1548 1547 1548 1548 1548 1548 1549 1549 1549 1549 1549 1550 1551 1551 1552 1552 1553 1553 1553 1553 1554 1554 1555 1555 1555 1556 1556 1556 1555 1556 1556 1557 1558 1559 1559 1559 1559 1559 1560 1560 1561 1561 1561 1561 1562 1562 1562 1563 1563 1564 1564 1564 1564 1564 1564 1564 1564 1564 1563 1563 1562 1561 1561 1560 1560 1559 1558 1558 1557 1556 1555 1554 1553 1552 1551 1551 1550 1549 1548
1544 1544 1544 1545 1545 1545 1545 1545 1546 1545 1545 1546 1547 1547 1547 1547 1547 1548 1548 1549 1550 1550 1550 1551 1551 1551 1552 1552 1552 1552 1553 1554 1554 1554 1554 1554 1555 1556 1556 1557 1558 1558 1557 1557 1558 1559 1560 1560 1560 1560 1560 1561 1561 1562 1562 1563 1563 1563 1564 1564 1564 1564 1563 1563 1562 1562 1561 1561 1560 1560 1559 1558 1558 1557 1556 1555 1554 1553 1552 1552 1551 1550 1549 1548 1547
1542 1541 1542 1542 1542 1543 1542 1543 1543 1543 1543 1543 1544 1545 1545 1545 1545 1545 1546 1547 1548 1548 1548 1549 1549 1549 1549 1549 1549 1549 1550 1551 1552 1552 1552 1552 1553 1554 1554 1555 1556 1556 1556 1555 1556 1557 1558 1558 1559 1559 1559 1560 1560 1561 1562 1562 1562 1563 1563 1563 1563 1563 1563 1562 1561 1561 1561 1560 1560 1559 1558 1558 1557 1556 1555 1554 1554 1553 1552 1551 1550 1549 1548 1547 1546
1540 1539 1539 1539 1540 1540 1540 1540 1541 1541 1541 1541 1541 1542 1542 1542 1543 1543 1544 1545 1545 1545 1545 1546 1546 1547 1547 1547 1547 1547 1547 1548 1549 1550 1551 1551 1551 1552 1552 1553 1553 1554 1554 1553 1553 1554 1556 1557 1557 1558 1558 1559 1559 1560 1561 1561 1561 1562 1562 1562 1562 1562 1561 1561 1560 1560 1560 1559 1559 1558 1558 1557 1556 1555 1554 1554 1553 1552 1551 1550 1549 1548 1547 1546 1545
1538 1537 1537 1537 1537 1537 1537 1538 1538 1538 1539 1539 1538 1539 1540 1540 1540 1540 1541 1541 1541 1541 1542 1543 1543 1544 1544 1544 1544 1544 1545 1545 1546 1547 1548 1549 1549 1550 1550 1551 1551 1552 1552 1552 1552 1552 1554 1555 1556 1556 1556 1557 1558 1559 1559 1560 1560 1561 1561 1561 1561 1561 1560 1560 1559 1559 1559 1558 1558 1557 1557 1556 1555 1554 1554 1553 1552 1551 1550 1549 1548 1547 1546 1545 1544
1536 1535 1535 1535 1535 1535 1535 1536 1536 1536 1537 1537 1537 1537 1537 1537 1537 1537 1538 1538 1538 1538 1538 1539 1540 1540 1540 1541 1541 1542 1542 1543 1543 1544 1546 1547 1547 1548 1548 1549 1549 1549 1550 1551 1550 1551 1552 1554 1554 1555 1555 1555 1556 1557 1557 1558 1559 1559 1560 1560 1560 1560 1559 1559 1558 1558 1558 1557 1557 1557 1556 1555 1554 1554 1553 1552 1551 1550 1549 1548 1547 1546 1545 1544 1543
1534 1533 1533 1533 1533 1533 1533 1534 1534 1534 1535 1535 1535 1535 1535 1535 1535 1535 1535 1535 1535 1535 1535 1535 1536 1537 1537 1537 1538 1539 1540 1540 1540 1541 1543 1544 1545 1546 1546 1546 1546 1547 1548 1549 1549 1549 1550 1551 1552 1553 1554 1554 1554 1555 1555 1556 1557 1558 1558 1558 1559 1558 1558 1557 1557 1557 1557 1556 1556 1555 1555 1554 1554 1553 1553 1552 1551 1550 1549 1548 1547 1546 1545 1544 1543
1533 1532 1531 1531 1531 1531 1531 1531 1532 1532 1532 1533 1533 1533 1533 1532 1533 1533 1533 1532 1532 1532 1532 1532 1532 1533 1533 1533 1534 1535 1536 1537 1537 1538 1540 1541 1542 1543 1543 1544 1544 1545 1546 1547 1547 1547 1548 1549 1550 1551 1552 1553 1553 1553 1554 1554 1555 1556 1556 1557 1557 1557 1557 1556 1556 1556 1555 1555 1555 1554 1554 1554 1553 1553 1552 1551 1550 1549 1549 1548 1546 1545 1544 1543 1542
1531 1530 1530 1529 1529 1529 1529 1529 1530 1530 1531 1531 1531 1531 1530 1530 1530 1530 1530 1530 1530 1529 1529 1529 1529 1529 1530 1529 1530 1531 1533 1533 1534 1535 1536 1537 1539 1539 1540 1541 1542 1542 1543 1544 1545 1545 1546 1547 1548 1549 1550 1551 1552 1552 1552 1553 1553 1554 1554 1555 1555 1555 1555 1555 1555 1555 1554 1554 1554 1554 1553 1552 1552 1552 1551 1550 1549 1549 1548 1547 1546 1545 1544 1543 1542
1529 1529 1528 1528 1528 1528 1528 1528 1528 1528 1529 1529 1528 1528 1528 1528 1527 1528 1528 1527 1527 1526 1526 1526 1526 1526 1526 1526 1526 1527 1529 1529 1530 1531 1533 1534 1535 1536 1537 1538 1539 1540 1541 1541 1542 1543 1543 1544 1545 1547 1548 1549 1550 1550 1550 1550 1551 1552 1553 1553 1554 1554 1554 1554 1554 1553 1553 1553 1553 1553 1552 1551 1551 1551 1550 1549 1549 1548 1547 1547 1546 1545 1544 1542 1541
1528 1527 1527 1527 1526 1526 1526 1526 1527 1527 1527 1527 1526 1526 1525 1525 1525 1525 1525 1525 1524 1524 1523 1523 1523 1523 1522 1522 1523 1524 1525 1525 1526 1528 1530 1531 1532 1533 1534 1535 1536 1537 1538 1539 1539 1540 1541 1541 1542 1544 1544 1546 1547 1547 1547 1548 1549 1550 1551 1552 1552 1553 1553 1552 1553 1553 1552 1552 1552 1552 1551 1550 1550 1550 1549 1549 1548 1547 1547 1546 1545 1545 1543 1542 1541
1526 1526 1526 1525 1525 1525 1524 1524 1525 1525 1525 1525 1524 1523 1523 1522 1522 1522 1522 1522 1521 1521 1520 1520 1520 1520 1519 1519 1519 1520 1521 1521 1523 1525 1526 1528 1529 1530 1531 1532 1533 1534 1535 1536 1537 1537 1538 1539 1540 1541 1541 1542 1544 1546 1546 1546 1547 1548 1549 1550 1551 1551 1551 1551 1552 1552 1551 1551 1551 1551 1550 1549 1549 1549 1548 1548 1547 1547 1546 1546 1545 1544 1543 1542 1541
1524 1524 1523 1523 1523 1523 1522 1522 1522 1522 1522 1522 1522 1521 1520 1519 1519 1519 1519 1519 1518 1518 1517 1517 1517 1517 1516 1516 1516 1517 1517 1518 1519 1521 1523 1524 1525 1527 1528 1529 1530 1531 1532 1533 1534 1535 1536 1537 1537 1538 1538 1540 1542 1544 1546 1546 1546 1546 1547 1547 1548 1549 1549 1550 1551 1551 1550 1550 1550 1550 1549 1549 1548 1548 1548 1547 1547 1547 1546 1545 1545 1544 1543 1542 1541
1521 1521 1521 1521 1521 1521 1520 1520 1519 1519 1519 1519 1518 1518 1517 1516 1516 1516 1516 1516 1515 1514 1514 1514 1514 1514 1513 1513 1513 1514 1514 1515 1516 1518 1519 1521 1522 1523 1525 1526 1527 1528 1528 1530 1531 1532 1533 1534 1535 1535 1536 1537 1538 1542 1545 1545 1544 1544 1545 1546 1547 1547 1548 1548 1549 1549 1549 1549 1549 1549 1548 1548 1547 1547 1547 1547 1546 1546 1546 1545 1544 1544 1543 1542 1541
1519 1519 1519 1519 1519 1518 1518 1517 1517 1516 1516 1515 1514 1514 1514 1513 1513 1512 1512 1512 1511 1511 1510 1510 1510 1510 1510 1510 1511 1511 1511 1512 1513 1514 1515 1517 1518 1519 1521 1522 1523 1524 1525 1526 1528 1529 1530 1531 1532 1533 1533 1534 1535 1538 1541 1542 1541 1542 1543 1544 1545 1546 1546 1546 1547 1547 1548 1548 1548 1548 1548 1547 1546 1546 1546 1546 1546 1545 1545 1545 1544 1543 1543 1542 1541
1517 1516 1516 1516 1516 1516 1516 1515 1514 1513 1513 1512 1511 1511 1510 1510 1509 1509 1509 1508 1508 1507 1506 1506 1506 1507 1507 1507 1507 1508 1509 1509 1509 1510 1511 1512 1513 1515 1517 1518 1519 1520 1521 1523 1524 1525 1527 1528 1529 1530 1530 1530 1532 1534 1537 1539 1539 1540 1541 1542 1543 1544 1544 1545 1545 1546 1546 1546 1546 1547 1546 1546 1546 1545 1545 1545 1545 1544 1545 1544 1544 1543 1542 1542 1541
1515 1514 1514 1514 1513 1513 1513 1512 1512 1511 1510 1509 1508 1508 1507 1506 1506 1505 1505 1505 1504 1504 1503 1502 1502 1502 1503 1503 1503 1504 1505 1505 1505 1506 1507 1508 1509 1510 1512 1514 1515 1516 1517 1519 1521 1522 1523 1524 1526 1527 1527 1527 1529 1531 1534 1536 1537 1538 1538 1539 1541 1542 1542 1543 1544 1544 1544 1545 1545 1545 1545 1545 1545 1544 1544 1544 1543 1543 1543 1544 1543 1543 1542 1542 1541
1513 1512 1512 1512 1511 1510 1510 1509 1509 1508 1507 1506 1506 1505 1504 1503 1502 1501 1501 1501 1500 1500 1499 1498 1498 1498 1498 1498 1498 1499 1500 1500 1501 1502 1503 1504 1504 1505 1507 1509 1511 1512 1513 1515 1517 1518 1519 1521 1522 1523 1524 1524 1526 1528 1531 1533 1534 1535 1535 1537 1539 1540 1540 1541 1542 1543 1543 1543 1543 1544 1544 1544 1544 1543 1543 1542 1542 1542 1542 1542 1542 1542 1541 1541 1540
1511 1510 1510 1509 1508 1507 1507 1506 1506 1504 1504 1503 1503 1502 1501 1500 1499 1498 1497 1497 1496 1496 1495 1494 1493 1493 1493 1493 1493 1493 1495 1496 1497 1498 1498 1500 1501 1502 1503 1504 1506 1507 1508 1510 1512 1514 1515 1517 1518 1519 1520 1521 1522 1524 1527 1530 1531 1532 1533 1535 1537 1538 1539 1539 1540 1541 1541 1542 1542 1542 1543 1543 1543 1543 1542 1541 1541 1541 1541 1541 1541 1540 1540 1540 1540
1509 1508 1507 1506 1505 1505 1504 1503 1503 1502 1501 1501 1500 1500 1499 1497 1496 1495 1494 1493 1492 1491 1491 1490 1489 1488 1488 1488 1488 1488 1489 1491 1492 1493 1494 1495 1496 1497 1498 1499 1500 1502 1503 1506 1508 1509 1510 1512 1514 1515 1517 1518 1519 1521 1524 1526 1527 1528 1531 1534 1535 1536 1537 1538 1538 1539 1540 1540 1541 1541 1542 1542 1542 1542 1541 1540 1540 1539 1539 1539 1539 1539 1540 1539 1539
1507 1506 1505 1504 1503 1502 1501 1500 1500 1499 1499 1498 1498 1497 1496 1495 1494 1493 1492 1490 1489 1488 1487 1486 1485 1484 1484 1483 1483 1483 1484 1485 1487 1488 1489 1491 1492 1493 1493 1494 1495 1497 1499 1501 1503 1504 1506 1509 1511 1513 1514 1515 1517 1519 1522 1523 1524 1526 1529 1532 1534 1535 1535 1536 1536 1537 1538 1538 1539 1540 1541 1541 1541 1541 1540 1539 1539 1539 1539 1539 1539 1539 1539 1539 1538
1505 1504 1503 1502 1501 1500 1498 1498 1497 1497 1496 1496 1495 1495 1494 1493 1492 1490 1489 1487 1486 1484 1483 1483 1482 1481 1480 1479 1479 1478 1479 1480 1482 1483 1485 1486 1487 1488 1488 1488 1490 1492 1494 1496 1498 1501 1504 1507 1508 1510 1511 1513 1515 1517 1519 1521 1523 1525 1527 1530 1531 1532 1532 1533 1534 1535 1535 1536 1537 1538 1539 1539 1540 1539 1538 1538 1538 1538 1538 1538 1538 1538 1538 1538 1537
1503 1502 1501 1500 1499 1497 1496 1496 1495 1494 1494 1493 1493 1493 1492 1490 1489 1488 1487 1485 1483 1482 1481 1480 1479 1478 1477 1476 1475 1475 1475 1476 1477 1479 1480 1481 1482 1482 1483 1484 1485 1487 1489 1491 1494 1497 1501 1503 1505 1507 1508 1510 1512 1514 1517 1520 1522 1523 1524 1527 1528 1529 1530 1530 1531 1532 1533 1534 1535 1537 1537 1538 1538 1538 1537 1537 1537 1537 1537 1537 1537 1537 1537 1537 1536
1500 1500 1498 1497 1496 1495 1494 1493 1493 1492 1492 1491 1491 1491 1490 1489 1487 1486 1485 1483 1482 1480 1479 1478 1476 1475 1474 1473 1472 1472 1472 1472 1473 1474 1475 1476 1477 1477 1478 1479 1480 1482 1483 1486 1489 1493 1496 1499 1501 1503 1505 1507 1510 1512 1514 1517 1519 1520 1522 1524 1525 1526 1527 1527 1528 1530 1531 1532 1533 1535 1536 1536 1536 1536 1535 1536 1536 1536 1536 1536 1536 1536 1536 1536 1535
1498 1497 1496 1494 1493 1492 1491 1491 1491 1490 1490 1489 1489 1489 1488 1487 1486 1485 1483 1482 1480 1479 1477 1476 1475 1473 1471 1470 1470 1469 1469 1469 1470 1471 1471 1472 1472 1473 1473 1473 1475 1477 1479 1482 1485 1488 1492 1495 1497 1500 1502 1505 1507 1509 1511 1513 1515 1517 1519 1522 1523 1523 1524 1525 1526 1527 1529 1530 1532 1533 1534 1534 1534 1534 1534 1534 1534 1534 1534 1535 1535 1535 1535 1535 1534